"2009-09-30 00:00:00",1284766,1.716,229.6,2.184,0.071,21.83,110.0786,25.1,26.1,10.91,0,111.1,13.13,25.94,191.6
"2009-09-30 00:00:30",1284767,1.69,230.7,1.68,0.027,21.86,110.0736,25.08,26.1,11.08,0,111.1,13.13,25.92,192.7
"2009-09-30 00:01:00",1284768,1.634,231.5,1.029,0.042,21.89,110.0682,25.07,26.09,10.88,0,111.1,13.13,25.91,193.5
"2009-09-30 00:01:30",1284769,1.698,233.2,0.69,0.024,21.91,110.0689,25.07,26.06,10.39,0,111.1,13.13,25.91,195.2
"2009-09-30 00:02:00",1284770,1.673,232.8,1.835,0.034,21.92,110.0686,25.07,26.06,10.16,0,111.1,13.13,25.91,194.8
"2009-09-30 00:02:30",1284771,1.713,234.2,1.86,0.064,21.91,110.0653,25.06,26.05,10.26,0,111.1,13.13,25.90,196.2
"2009-09-30 00:03:00",1284772,1.743,233,1.465,0.036,21.93,110.0612,25.05,26.03,9.98,0,111.1,13.13,25.89,195.0
"2009-09-30 00:03:30",1284773,1.731,231.1,1.839,0.042,21.89,110.0601,25.05,26.03,10.1,0,111.1,13.13,25.89,193.1
"2009-09-30 00:04:00",1284774,1.795,233.3,1.121,0.034,21.87,110.0583,25.04,26,10.16,0,111.1,13.13,25.88,195.3
"2009-09-30 00:04:30",1284775,1.751,234.4,1.888,0.042,21.85,110.0547,25.04,25.99,10.3,0,111.1,13.13,25.87,196.4
"2009-09-30 00:05:00",1284776,1.468,238.1,2.795,0.077,21.8,110.048,25.02,25.98,10.9,0,111.1,13.13,25.86,200.1
"2009-09-30 00:05:30",1284777,1.44,242.8,2.618,0.087,21.73,110.0438,25.01,25.97,11.89,0,111.1,13.14,25.85,204.8
"2009-09-30 00:06:00",1284778,1.732,241.8,1.581,0.048,21.83,110.0438,25.01,25.95,12.04,0,111.1,13.14,25.85,203.8
"2009-09-30 00:06:30",1284779,1.7,239.8,2.817,0.094,21.83,110.0435,25.01,25.94,11.72,0,111.1,13.14,25.85,201.8
"2009-09-30 00:07:00",1284780,1.592,255.9,2.868,0.075,21.73,110.0357,24.99,25.92,12.04,0,111.1,13.14,25.83,217.9
"2009-09-30 00:07:30",1284781,0.981,282.2,18.63,0.403,21.77,110.0197,24.95,25.93,11.63,0,111.1,13.14,25.78,244.2
"2009-09-30 00:08:00",1284782,1.252,248.2,9.87,0.233,21.78,110.0146,24.93,25.9,11.61,0,111.1,13.14,25.77,210.2
"2009-09-30 00:08:30",1284783,0.961,237.7,8.48,0.097,21.75,110.0101,24.92,25.89,11.74,0,111.1,13.14,25.76,199.7
"2009-09-30 00:09:00",1284784,1.081,242.7,3.81,0.155,21.7,110.0101,24.92,25.88,11.73,0,111.1,13.14,25.76,204.7
"2009-09-30 00:09:30",1284785,1.422,253.5,5.88,0.075,21.71,110.0101,24.92,25.88,10.96,0,111.1,13.14,25.76,215.5
"2009-09-30 00:10:00",1284786,1.323,263.9,3.967,0.062,21.77,110.0067,24.91,25.85,10.99,0,111.1,13.14,25.75,225.9
"2009-09-30 00:10:30",1284787,1.501,273.3,17.41,0.134,21.76,109.9913,24.87,25.84,11.43,0,111.1,13.14,25.71,235.3
"2009-09-30 00:11:00",1284788,1.502,298.6,4.017,0.126,21.75,109.9826,24.85,25.83,11.49,0,111.1,13.14,25.69,260.6
"2009-09-30 00:11:30",1284789,1.441,312.6,11.89,0.239,21.75,109.9772,24.84,25.81,11.41,0,111.1,13.14,25.67,274.6
"2009-09-30 00:12:00",1284790,1.811,324,3.755,0.122,21.68,109.9764,24.83,25.8,10.96,0,111.1,13.14,25.67,286.0
"2009-09-30 00:12:30",1284791,2.123,324.7,4.414,0.518,21.55,109.9764,24.83,25.79,10.75,0,111.1,13.14,25.67,286.7
"2009-09-30 00:13:00",1284792,4.374,318.5,4.95,0.58,21.38,109.9764,24.83,25.79,11.14,0,111.1,13.14,25.67,280.5
"2009-09-30 00:13:30",1284793,4.19,306.3,4.021,0.473,21.48,109.9744,24.83,25.78,11.38,0,111.1,13.14,25.67,268.3
"2009-09-30 00:14:00",1284794,2.996,314.9,8.08,0.516,21.52,109.9587,24.79,25.76,11.41,0,111.1,13.14,25.63,276.9
"2009-09-30 00:14:30",1284795,3.3,321.7,5.901,0.458,21.51,109.9486,24.76,25.77,11.4,0,111.1,13.14,25.60,283.7
"2009-09-30 00:15:00",1284796,2.945,316.5,8.21,0.364,21.57,109.9427,24.75,25.77,11.39,0,111.1,13.14,25.59,278.5
"2009-09-30 00:15:30",1284797,2.685,309.2,5.877,0.241,21.59,109.9442,24.75,25.74,11.41,0,111.1,13.14,25.59,271.2
"2009-09-30 00:16:00",1284798,3.654,304.2,4.503,0.441,21.61,109.9442,24.75,25.75,11.45,0,111.1,13.14,25.59,266.2
"2009-09-30 00:16:30",1284799,3.94,311,4.331,0.363,21.61,109.9429,24.75,25.75,11.36,0,111.1,13.14,25.59,273.0
"2009-09-30 00:17:00",1284800,3.333,302.3,8.32,0.73,21.63,109.9399,24.74,25.74,11.36,0,111.1,13.14,25.58,264.3
"2009-09-30 00:17:30",1284801,2.539,310.5,3.894,0.157,21.76,109.9331,24.72,25.73,11.33,0,111.1,13.14,25.56,272.5
"2009-09-30 00:18:00",1284802,1.825,312.4,3.733,0.287,21.7,109.9294,24.71,25.73,11.28,0,111.1,13.14,25.55,274.4
"2009-09-30 00:18:30",1284803,1.48,322.2,13.47,0.16,21.7,109.9294,24.71,25.72,11.4,0,111.1,13.14,25.55,284.2
"2009-09-30 00:19:00",1284804,1.603,337.3,6.539,0.272,21.63,109.9306,24.72,25.72,11.35,0,111.1,13.14,25.55,299.3
"2009-09-30 00:19:30",1284805,1.172,341.8,12.61,0.141,21.61,109.9352,24.73,25.71,11.36,0,111.1,13.15,25.57,303.8
"2009-09-30 00:20:00",1284806,2.108,324.5,4.075,0.295,21.57,109.9352,24.73,25.69,11.38,0,111.1,13.14,25.57,286.5
"2009-09-30 00:20:30",1284807,2.489,323.5,6.082,0.197,21.36,109.9359,24.73,25.69,11.41,0,111.1,13.15,25.57,285.5
"2009-09-30 00:21:00",1284808,2.366,310.1,1.67,0.443,21.4,109.9368,24.73,25.69,11.48,0,111,13.15,25.57,272.1
"2009-09-30 00:21:30",1284809,2.716,307.6,5.504,0.177,21.47,109.9354,24.73,25.69,11.44,0,111,13.15,25.57,269.6
"2009-09-30 00:22:00",1284810,1.922,314.1,7.695,0.365,21.41,109.932,24.72,25.69,11.39,0,111,13.15,25.56,276.1
"2009-09-30 00:22:30",1284811,1.505,309.2,7.422,0.187,21.5,109.9337,24.72,25.68,11.35,0,111,13.15,25.56,271.2
"2009-09-30 00:23:00",1284812,2.3,315.4,9.89,0.182,21.6,109.9323,24.72,25.67,11.28,0,111,13.15,25.56,277.4
"2009-09-30 00:23:30",1284813,2.492,322.5,3.488,0.189,21.65,109.9286,24.71,25.68,11.24,0,111,13.15,25.55,284.5
"2009-09-30 00:24:00",1284814,2.273,318.3,4.481,0.112,21.73,109.9281,24.71,25.67,11.26,0,111,13.15,25.55,280.3
"2009-09-30 00:24:30",1284815,2.093,299.4,3.815,0.14,21.7,109.925,24.7,25.67,11.24,0,111,13.15,25.54,261.4
"2009-09-30 00:25:00",1284816,1.91,305.5,6.093,0.256,21.63,109.9242,24.7,25.67,11.28,0,111,13.15,25.54,267.5
"2009-09-30 00:25:30",1284817,2.353,316.8,4.71,0.115,21.56,109.9226,24.7,25.69,11.28,0,111,13.15,25.53,278.8
"2009-09-30 00:26:00",1284818,2.257,313.4,3.582,0.133,21.61,109.9205,24.69,25.68,11.21,0,111,13.15,25.53,275.4
"2009-09-30 00:26:30",1284819,2.272,316.8,2.298,0.163,21.6,109.9192,24.69,25.67,11.11,0,111,13.15,25.52,278.8
"2009-09-30 00:27:00",1284820,2.209,318.7,3.453,0.242,21.57,109.9184,24.68,25.66,11.13,0,111,13.15,25.52,280.7
"2009-09-30 00:27:30",1284821,2.2,320,3.083,0.203,21.63,109.9213,24.69,25.68,11.12,0,111,13.15,25.53,282.0
"2009-09-30 00:28:00",1284822,2.293,320.6,1.944,0.119,21.65,109.9204,24.69,25.68,11.11,0,111,13.15,25.53,282.6
"2009-09-30 00:28:30",1284823,2.347,328.5,2.357,0.224,21.57,109.9165,24.68,25.68,11.09,0,111,13.15,25.52,290.5
"2009-09-30 00:29:00",1284824,2.425,327.9,6.059,0.155,21.55,109.9191,24.69,25.68,11.13,0,111,13.15,25.52,289.9
"2009-09-30 00:29:30",1284825,3.361,328.1,3.484,0.376,21.49,109.9182,24.68,25.67,11.23,0,111,13.15,25.52,290.1
"2009-09-30 00:30:00",1284826,3.138,339.2,7.142,0.252,21.51,109.9143,24.67,25.66,11.29,0,111,13.15,25.51,301.2
"2009-09-30 00:30:30",1284827,3.189,336.3,4.14,0.308,21.51,109.9137,24.67,25.66,11.29,0,111,13.15,25.51,298.3
"2009-09-30 00:31:00",1284828,3.794,333.1,4.934,0.316,21.57,109.9143,24.67,25.67,11.21,0,111,13.15,25.51,295.1
"2009-09-30 00:31:30",1284829,3.426,320.6,6.66,0.155,21.62,109.9128,24.67,25.65,11.18,0,111,13.15,25.51,282.6
"2009-09-30 00:32:00",1284830,3.294,330.1,3.292,0.219,21.66,109.9123,24.67,25.67,11.2,0,111,13.15,25.51,292.1
"2009-09-30 00:32:30",1284831,3.195,327.4,1.487,0.135,21.61,109.9123,24.67,25.67,11.21,0,111,13.15,25.51,289.4
"2009-09-30 00:33:00",1284832,3.564,333.7,5.204,0.309,21.71,109.9123,24.67,25.66,11.15,0,111,13.15,25.51,295.7
"2009-09-30 00:33:30",1284833,3.852,327.9,4.491,0.126,21.72,109.9123,24.67,25.67,11.03,0,111,13.15,25.51,289.9
"2009-09-30 00:34:00",1284834,3.465,320.6,1.203,0.14,21.71,109.9123,24.67,25.67,11,0,111,13.14,25.51,282.6
"2009-09-30 00:34:30",1284835,3.334,327.4,4.377,0.134,21.74,109.9123,24.67,25.67,10.98,0,111,13.14,25.51,289.4
"2009-09-30 00:35:00",1284836,3.067,326.3,1.242,0.13,21.81,109.9123,24.67,25.66,10.97,0,111,13.14,25.51,288.3
"2009-09-30 00:35:30",1284837,2.905,327.7,1.629,0.065,21.86,109.9123,24.67,25.64,10.89,0,111,13.14,25.51,289.7
"2009-09-30 00:36:00",1284838,2.909,321.6,2.389,0.054,21.82,109.9118,24.67,25.65,10.86,0,111,13.14,25.51,283.6
"2009-09-30 00:36:30",1284839,2.813,321.3,2.096,0.142,21.83,109.9101,24.66,25.63,10.86,0,111,13.14,25.50,283.3
"2009-09-30 00:37:00",1284840,2.734,317.2,2.302,0.081,21.84,109.9076,24.66,25.64,10.89,0,111,13.14,25.50,279.2
"2009-09-30 00:37:30",1284841,2.735,320.1,1.632,0.154,21.87,109.9019,24.64,25.64,10.91,0,111,13.14,25.48,282.1
"2009-09-30 00:38:00",1284842,2.708,322.8,2.028,0.104,21.85,109.8941,24.62,25.61,10.94,0,111,13.14,25.46,284.8
"2009-09-30 00:38:30",1284843,3.085,322.1,2.283,0.129,21.86,109.8834,24.59,25.61,10.94,0,111,13.14,25.43,284.1
"2009-09-30 00:39:00",1284844,3.249,324.4,1.392,0.065,21.85,109.8786,24.58,25.6,10.95,0,111,13.15,25.42,286.4
"2009-09-30 00:39:30",1284845,3.227,325,1.137,0.074,21.86,109.8786,24.58,25.61,10.93,0,111,13.15,25.42,287.0
"2009-09-30 00:40:00",1284846,3.168,325.6,1.4,0.102,21.87,109.8786,24.58,25.6,10.92,0,111,13.15,25.42,287.6
"2009-09-30 00:40:30",1284847,3.266,327.4,0.962,0.084,21.87,109.8786,24.58,25.58,10.9,0,111,13.15,25.42,289.4
"2009-09-30 00:41:00",1284848,3.348,328.1,0.872,0.097,21.9,109.8786,24.58,25.58,10.89,0,111,13.15,25.42,290.1
"2009-09-30 00:41:30",1284849,3.623,327.7,1.133,0.059,21.92,109.8685,24.56,25.57,10.84,0,111,13.15,25.39,289.7
"2009-09-30 00:42:00",1284850,3.772,328.8,0.961,0.1,21.89,109.8562,24.52,25.56,10.82,0,111,13.15,25.36,290.8
"2009-09-30 00:42:30",1284851,3.946,325.3,1.717,0.119,21.92,109.8495,24.51,25.55,10.78,0,111,13.15,25.35,287.3
"2009-09-30 00:43:00",1284852,3.784,326.7,1.695,0.091,21.9,109.8452,24.5,25.54,10.75,0,111,13.15,25.33,288.7
"2009-09-30 00:43:30",1284853,3.7,331.4,1.025,0.174,21.92,109.8477,24.5,25.53,10.73,0,111,13.15,25.34,293.4
"2009-09-30 00:44:00",1284854,3.575,331.7,1.008,0.076,21.89,109.8474,24.5,25.53,10.74,0,111,13.15,25.34,293.7
"2009-09-30 00:44:30",1284855,3.36,331.9,0.784,0.046,21.89,109.8486,24.51,25.51,10.74,0,111,13.15,25.34,293.9
"2009-09-30 00:45:00",1284856,3.473,330.6,1.054,0.101,21.82,109.8484,24.5,25.5,10.75,0,111,13.15,25.34,292.6
"2009-09-30 00:45:30",1284857,3.939,328.5,1.712,0.22,21.71,109.8361,24.47,25.48,10.87,0,111,13.15,25.31,290.5
"2009-09-30 00:46:00",1284858,4.335,323.6,1.02,0.098,21.67,109.8256,24.45,25.47,11.21,0,111,13.15,25.28,285.6
"2009-09-30 00:46:30",1284859,4.22,324.6,1.623,0.211,21.68,109.8229,24.44,25.46,11.34,0,111,13.15,25.28,286.6
"2009-09-30 00:47:00",1284860,4.382,322,3.722,0.157,21.72,109.8189,24.43,25.47,11.32,0,111,13.15,25.27,284.0
"2009-09-30 00:47:30",1284861,3.987,320.7,4.169,0.181,21.76,109.8177,24.43,25.45,11.29,0,111,13.15,25.26,282.7
"2009-09-30 00:48:00",1284862,4.071,323.7,2.745,0.264,21.78,109.8211,24.43,25.45,11.24,0,111,13.16,25.27,285.7
"2009-09-30 00:48:30",1284863,3.779,320.5,3.106,0.233,21.77,109.8218,24.44,25.44,11.25,0,111,13.16,25.27,282.5
"2009-09-30 00:49:00",1284864,4.215,323.4,3.302,0.611,21.78,109.8191,24.43,25.43,11.26,0,111,13.16,25.27,285.4
"2009-09-30 00:49:30",1284865,4.817,321.5,1.416,0.196,21.78,109.806,24.4,25.41,11.24,0,111,13.16,25.23,283.5
"2009-09-30 00:50:00",1284866,5.347,324.8,1.924,0.249,21.81,109.8025,24.39,25.41,11.2,0,111,13.16,25.22,286.8
"2009-09-30 00:50:30",1284867,4.224,331,2.508,0.443,21.86,109.799,24.38,25.39,11.17,0,111,13.16,25.22,293.0
"2009-09-30 00:51:00",1284868,3.855,327.7,1.247,0.109,21.85,109.7981,24.38,25.39,11.14,0,111,13.15,25.21,289.7
"2009-09-30 00:51:30",1284869,3.839,325.8,3.242,0.268,21.81,109.8022,24.39,25.38,11.13,0,111,13.15,25.22,287.8
"2009-09-30 00:52:00",1284870,5.028,314.9,5.006,0.842,21.82,109.8034,24.39,25.37,11.42,0,111,13.15,25.23,276.9
"2009-09-30 00:52:30",1284871,6.703,325.3,3.501,0.535,21.9,109.8052,24.39,25.36,11.47,0,111,13.15,25.23,287.3
"2009-09-30 00:53:00",1284872,6.434,327.7,1.508,0.187,21.85,109.8021,24.39,25.35,11.43,0,111,13.15,25.22,289.7
"2009-09-30 00:53:30",1284873,5.953,324.4,1.578,0.374,21.85,109.7878,24.35,25.35,11.49,0,111,13.15,25.19,286.4
"2009-09-30 00:54:00",1284874,5.276,327.9,2.883,0.253,21.92,109.7802,24.33,25.35,11.47,0,111,13.15,25.17,289.9
"2009-09-30 00:54:30",1284875,5.245,326.3,1.376,0.22,21.89,109.7783,24.32,25.33,11.44,0,111,13.15,25.16,288.3
"2009-09-30 00:55:00",1284876,5.134,327.2,2.515,0.24,21.88,109.7732,24.31,25.32,11.46,0,111,13.15,25.15,289.2
"2009-09-30 00:55:30",1284877,5.237,325.3,2.505,0.179,21.86,109.7724,24.31,25.31,11.47,0,111,13.15,25.15,287.3
"2009-09-30 00:56:00",1284878,5.234,318.8,3.493,0.139,21.81,109.7728,24.31,25.32,11.54,0,111,13.15,25.15,280.8
"2009-09-30 00:56:30",1284879,5.786,314.3,1.759,0.193,21.81,109.7749,24.32,25.3,11.59,0,111,13.16,25.15,276.3
"2009-09-30 00:57:00",1284880,6.001,313.8,1.65,0.165,21.77,109.7771,24.32,25.31,11.66,0,111,13.16,25.16,275.8
"2009-09-30 00:57:30",1284881,5.983,313.9,1.505,0.303,21.92,109.7783,24.32,25.31,11.62,0,111,13.16,25.16,275.9
"2009-09-30 00:58:00",1284882,5.75,312.4,2.036,0.262,21.9,109.7795,24.33,25.29,11.46,0,111,13.17,25.16,274.4
"2009-09-30 00:58:30",1284883,6.116,316.4,2.954,0.39,21.8,109.7799,24.33,25.28,11.64,0,111,13.17,25.17,278.4
"2009-09-30 00:59:00",1284884,5.511,316.7,2.326,0.21,21.8,109.7805,24.33,25.29,11.74,0,111,13.17,25.17,278.7
"2009-09-30 00:59:30",1284885,5.167,318.2,1.906,0.266,21.82,109.7802,24.33,25.28,11.79,0,111,13.17,25.17,280.2
"2009-09-30 01:00:00",1284886,4.711,316.9,2.678,0.205,21.78,109.7808,24.33,25.29,11.79,0,111,13.17,25.17,278.9
"2009-09-30 01:00:30",1284887,5.263,318.5,2.001,0.308,21.77,109.7805,24.33,25.28,11.85,0,111,13.17,25.17,280.5
"2009-09-30 01:01:00",1284888,5.361,322.2,2.357,0.207,21.78,109.7791,24.33,25.27,11.84,0,111,13.17,25.16,284.2
"2009-09-30 01:01:30",1284889,5.595,319.5,3.513,0.297,21.81,109.7743,24.31,25.27,11.83,0,111,13.17,25.15,281.5
"2009-09-30 01:02:00",1284890,5.826,318.6,2.817,0.225,21.82,109.7659,24.29,25.27,11.8,0,111,13.17,25.13,280.6
"2009-09-30 01:02:30",1284891,5.981,319.2,2.781,0.206,21.86,109.7588,24.27,25.28,11.76,0,111,13.17,25.11,281.2
"2009-09-30 01:03:00",1284892,6.276,320.3,1.946,0.159,21.89,109.7558,24.27,25.26,11.7,0,111,13.17,25.10,282.3
"2009-09-30 01:03:30",1284893,5.833,320.7,1.723,0.287,21.86,109.7552,24.27,25.26,11.74,0,111,13.17,25.10,282.7
"2009-09-30 01:04:00",1284894,5.318,324.8,1.21,0.174,21.82,109.7541,24.26,25.26,11.75,0,111,13.17,25.10,286.8
"2009-09-30 01:04:30",1284895,5.457,325,2.048,0.159,21.8,109.7493,24.25,25.27,11.78,0,111,13.17,25.09,287.0
"2009-09-30 01:05:00",1284896,5.144,322.2,2.829,0.2,21.85,109.7479,24.25,25.25,11.78,0,111,13.16,25.08,284.2
"2009-09-30 01:05:30",1284897,5.641,322.5,4.627,0.668,21.9,109.747,24.24,25.26,11.76,0,111,13.16,25.08,284.5
"2009-09-30 01:06:00",1284898,5.716,323.4,3.091,0.207,21.86,109.747,24.24,25.25,11.67,0,111,13.16,25.08,285.4
"2009-09-30 01:06:30",1284899,5.922,321.6,2.593,0.346,21.94,109.747,24.24,25.24,11.57,0,111,13.16,25.08,283.6
"2009-09-30 01:07:00",1284900,5.214,322.3,3.355,0.228,21.86,109.747,24.24,25.24,11.58,0,111,13.17,25.08,284.3
"2009-09-30 01:07:30",1284901,6.141,318.6,2.587,0.483,21.96,109.747,24.24,25.25,11.52,0,111,13.17,25.08,280.6
"2009-09-30 01:08:00",1284902,5.584,319.7,3.415,0.284,21.92,109.747,24.24,25.24,11.38,0,111,13.17,25.08,281.7
"2009-09-30 01:08:30",1284903,5.441,321,2.959,0.331,21.87,109.747,24.24,25.23,11.56,0,111,13.17,25.08,283.0
"2009-09-30 01:09:00",1284904,5.416,317.8,1.205,0.189,21.95,109.747,24.24,25.23,11.58,0,111,13.16,25.08,279.8
"2009-09-30 01:09:30",1284905,4.93,320.5,2.08,0.159,21.91,109.747,24.24,25.23,11.57,0,111,13.16,25.08,282.5
"2009-09-30 01:10:00",1284906,5.032,315.7,1.24,0.199,21.86,109.7474,24.25,25.23,11.64,0,111,13.16,25.08,277.7
"2009-09-30 01:10:30",1284907,4.681,315.2,2.046,0.224,21.94,109.7462,24.24,25.24,11.67,0,111,13.16,25.08,277.2
"2009-09-30 01:11:00",1284908,4.69,310.4,4.16,0.315,21.98,109.7468,24.24,25.23,11.62,0,111,13.16,25.08,272.4
"2009-09-30 01:11:30",1284909,3.819,302.4,3.863,0.352,21.97,109.7477,24.25,25.22,11.43,0,111,13.17,25.08,264.4
"2009-09-30 01:12:00",1284910,4.732,305.3,2.563,0.189,21.92,109.748,24.25,25.23,11.49,0,111,13.17,25.08,267.3
"2009-09-30 01:12:30",1284911,4.874,308.9,2.058,0.188,21.96,109.7486,24.25,25.24,11.58,0,111,13.17,25.09,270.9
"2009-09-30 01:13:00",1284912,4.74,310.2,1.596,0.187,21.97,109.748,24.25,25.22,11.55,0,111,13.17,25.08,272.2
"2009-09-30 01:13:30",1284913,4.28,307.9,2.931,0.461,22,109.7489,24.25,25.24,11.54,0,111,13.17,25.09,269.9
"2009-09-30 01:14:00",1284914,3.666,317.5,3.694,0.166,22.02,109.7501,24.25,25.23,11.34,0,111,13.17,25.09,279.5
"2009-09-30 01:14:30",1284915,3.452,322.3,4.661,0.295,22.02,109.7507,24.25,25.25,11.3,0,110.9,13.17,25.09,284.3
"2009-09-30 01:15:00",1284916,3.92,318.8,5.554,0.191,21.98,109.7544,24.26,25.25,11.27,0,111,13.17,25.10,280.8
"2009-09-30 01:15:30",1284917,4.38,310.7,2.765,0.263,21.91,109.7554,24.27,25.25,11.43,0,111,13.17,25.10,272.7
"2009-09-30 01:16:00",1284918,4.325,307.4,6.193,0.27,21.92,109.7566,24.27,25.25,11.6,0,111,13.17,25.11,269.4
"2009-09-30 01:16:30",1284919,3.549,306.9,5.677,0.434,21.93,109.7588,24.27,25.27,11.62,0,110.9,13.17,25.11,268.9
"2009-09-30 01:17:00",1284920,3.038,316.1,5.59,0.442,21.93,109.7628,24.29,25.27,11.62,0,110.9,13.17,25.12,278.1
"2009-09-30 01:17:30",1284921,2.847,311.4,5.06,0.299,21.94,109.7634,24.29,25.27,11.62,0,110.9,13.17,25.12,273.4
"2009-09-30 01:18:00",1284922,2.825,309.7,3.195,0.405,22.03,109.7693,24.3,25.26,11.55,0,110.9,13.17,25.14,271.7
"2009-09-30 01:18:30",1284923,2.947,308.6,2.705,0.351,22.01,109.7686,24.3,25.26,11.38,0,110.9,13.17,25.14,270.6
"2009-09-30 01:19:00",1284924,1.929,308.6,4.151,0.196,22.08,109.772,24.31,25.27,11.27,0,110.9,13.17,25.15,270.6
"2009-09-30 01:19:30",1284925,1.82,309.7,5.116,0.162,22.08,109.7745,24.32,25.26,11.2,0,110.9,13.17,25.15,271.7
"2009-09-30 01:20:00",1284926,2.036,324,4.201,0.081,22.14,109.7748,24.32,25.26,11.19,0,110.9,13.18,25.15,286.0
"2009-09-30 01:20:30",1284927,2.323,324.7,3.83,0.245,22.05,109.7751,24.32,25.26,11.11,0,110.9,13.18,25.15,286.7
"2009-09-30 01:21:00",1284928,3.101,314.2,4.615,0.228,21.96,109.774,24.31,25.26,11.3,0,111,13.18,25.15,276.2
"2009-09-30 01:21:30",1284929,3.05,313.2,3.152,0.157,21.94,109.7669,24.3,25.26,11.48,0,111,13.18,25.13,275.2
"2009-09-30 01:22:00",1284930,2.557,315.5,4.723,0.325,21.97,109.7583,24.27,25.24,11.49,0,110.9,13.18,25.11,277.5
"2009-09-30 01:22:30",1284931,2.233,322.2,6.718,0.231,21.97,109.7513,24.26,25.24,11.51,0,110.9,13.18,25.09,284.2
"2009-09-30 01:23:00",1284932,2.188,309.7,8.57,0.375,21.98,109.7505,24.25,25.24,11.52,0,110.9,13.18,25.09,271.7
"2009-09-30 01:23:30",1284933,2.376,323,2.908,0.41,21.96,109.7451,24.24,25.24,11.51,0,110.9,13.18,25.08,285.0
"2009-09-30 01:24:00",1284934,1.835,309.2,4.395,0.197,21.99,109.7457,24.24,25.23,11.53,0,110.9,13.18,25.08,271.2
"2009-09-30 01:24:30",1284935,2.174,306.6,1.37,0.105,21.99,109.7482,24.25,25.23,11.57,0,110.9,13.18,25.08,268.6
"2009-09-30 01:25:00",1284936,1.918,307.4,6.572,0.191,21.91,109.7491,24.25,25.21,11.59,0,110.9,13.17,25.09,269.4
"2009-09-30 01:25:30",1284937,2.024,310.6,2.857,0.156,21.96,109.7491,24.25,25.21,11.6,0,111,13.17,25.09,272.6
"2009-09-30 01:26:00",1284938,2.328,312.8,1.703,0.213,21.94,109.7483,24.25,25.2,11.6,0,110.9,13.17,25.08,274.8
"2009-09-30 01:26:30",1284939,2.259,311.3,2.167,0.11,21.94,109.7335,24.21,25.2,11.61,0,110.9,13.17,25.05,273.3
"2009-09-30 01:27:00",1284940,1.973,320.6,7.569,0.145,21.95,109.7236,24.18,25.18,11.63,0,111,13.17,25.02,282.6
"2009-09-30 01:27:30",1284941,1.872,312.1,5.041,0.211,21.95,109.7174,24.17,25.17,11.63,0,110.9,13.17,25.00,274.1
"2009-09-30 01:28:00",1284942,2.49,312.2,3.259,0.169,21.98,109.7166,24.17,25.17,11.61,0,110.9,13.17,25.00,274.2
"2009-09-30 01:28:30",1284943,2.383,312.1,2.196,0.156,21.95,109.7166,24.17,25.15,11.62,0,110.9,13.17,25.00,274.1
"2009-09-30 01:29:00",1284944,1.953,312.6,2.547,0.173,21.95,109.7163,24.17,25.14,11.61,0,110.9,13.17,25.00,274.6
"2009-09-30 01:29:30",1284945,1.737,317.1,3.352,0.114,21.96,109.7135,24.16,25.13,11.62,0,110.9,13.17,24.99,279.1
"2009-09-30 01:30:00",1284946,1.435,320.7,2.749,0.071,21.95,109.7039,24.13,25.12,11.63,0,110.9,13.17,24.97,282.7
"2009-09-30 01:30:30",1284947,1.699,328.1,5.71,0.165,21.93,109.6874,24.09,25.1,11.65,0,110.9,13.18,24.93,290.1
"2009-09-30 01:31:00",1284948,1.737,323.3,2.895,0.056,21.92,109.6829,24.08,25.09,11.64,0,110.9,13.18,24.92,285.3
"2009-09-30 01:31:30",1284949,1.781,319,2.764,0.064,21.91,109.6829,24.08,25.07,11.64,0,110.9,13.19,24.92,281.0
"2009-09-30 01:32:00",1284950,1.933,318.4,2.926,0.097,21.91,109.6829,24.08,25.07,11.66,0,110.9,13.19,24.92,280.4
"2009-09-30 01:32:30",1284951,1.941,315.6,1.583,0.054,21.9,109.6741,24.06,25.06,11.69,0,110.9,13.19,24.89,277.6
"2009-09-30 01:33:00",1284952,1.988,313.8,1.099,0.064,21.92,109.657,24.01,25.04,11.72,0,110.9,13.19,24.85,275.8
"2009-09-30 01:33:30",1284953,2.135,310.9,1.705,0.089,21.94,109.6491,23.99,25.02,11.74,0,110.9,13.19,24.83,272.9
"2009-09-30 01:34:00",1284954,2.037,309.7,2.837,0.09,21.95,109.6491,23.99,25,11.76,0,110.9,13.19,24.83,271.7
"2009-09-30 01:34:30",1284955,2.113,311.4,1.066,0.072,21.95,109.6488,23.99,24.99,11.75,0,110.9,13.19,24.83,273.4
"2009-09-30 01:35:00",1284956,2.084,311.1,1.875,0.068,21.95,109.6421,23.98,24.99,11.78,0,110.9,13.19,24.81,273.1
"2009-09-30 01:35:30",1284957,1.976,310.6,1.88,0.1,21.97,109.6278,23.94,24.97,11.77,0,110.9,13.19,24.77,272.6
"2009-09-30 01:36:00",1284958,2.041,313,0.738,0.07,21.93,109.6157,23.91,24.94,11.77,0,110.9,13.19,24.74,275.0
"2009-09-30 01:36:30",1284959,2.01,311.3,1.179,0.073,21.9,109.6154,23.91,24.93,11.79,0,110.9,13.19,24.74,273.3
"2009-09-30 01:37:00",1284960,2.031,305.4,2.29,0.072,21.84,109.6154,23.91,24.92,11.81,0,110.9,13.19,24.74,267.4
"2009-09-30 01:37:30",1284961,2.301,303.9,1.111,0.135,21.73,109.603,23.87,24.89,11.84,0,110.9,13.19,24.71,265.9
"2009-09-30 01:38:00",1284962,2.32,300.4,1.136,0.097,21.69,109.5853,23.83,24.89,11.94,0,110.9,13.19,24.66,262.4
"2009-09-30 01:38:30",1284963,2.23,296.9,1.803,0.052,21.68,109.5816,23.82,24.86,11.99,0,110.9,13.19,24.65,258.9
"2009-09-30 01:39:00",1284964,2.425,302.1,6.182,0.182,21.5,109.5816,23.82,24.83,12.08,0,110.9,13.19,24.65,264.1
"2009-09-30 01:39:30",1284965,2.13,306.4,5.071,0.291,21.4,109.582,23.82,24.84,12.32,0,110.9,13.19,24.66,268.4
"2009-09-30 01:40:00",1284966,1.83,300.2,6.489,0.337,21.36,109.5719,23.79,24.82,12.5,0,110.9,13.19,24.63,262.2
"2009-09-30 01:40:30",1284967,1.555,304,8.17,0.189,21.54,109.5527,23.75,24.8,12.67,0,110.9,13.19,24.58,266.0
"2009-09-30 01:41:00",1284968,1.566,321.1,13.13,0.412,21.24,109.5498,23.74,24.78,12.73,0,110.9,13.19,24.57,283.1
"2009-09-30 01:41:30",1284969,1.497,314.1,7.735,0.271,21.28,109.5504,23.74,24.77,12.89,0,110.9,13.19,24.57,276.1
"2009-09-30 01:42:00",1284970,1.88,304,11.33,0.221,21.5,109.5481,23.73,24.75,12.77,0,110.9,13.19,24.57,266.0
"2009-09-30 01:42:30",1284971,1.585,312.6,13.48,0.183,21.4,109.5239,23.67,24.73,12.76,0,110.9,13.19,24.51,274.6
"2009-09-30 01:43:00",1284972,1.721,3.795,30.57,0.475,21.41,109.5179,23.66,24.71,12.76,0,110.9,13.19,24.49,325.8
"2009-09-30 01:43:30",1284973,1.582,14.08,13.18,0.42,21.47,109.5179,23.66,24.69,12.77,0,110.9,13.19,24.49,336.1
"2009-09-30 01:44:00",1284974,1.575,36.53,10.72,0.287,21.49,109.52,23.66,24.67,12.8,0,110.9,13.19,24.50,358.5
"2009-09-30 01:44:30",1284975,2.085,37.23,9.13,0.501,21.53,109.5116,23.64,24.66,12.78,0,110.9,13.19,24.47,359.2
"2009-09-30 01:45:00",1284976,1.506,12.99,16.78,0.357,21.53,109.4964,23.6,24.65,12.7,0,110.9,13.19,24.44,335.0
"2009-09-30 01:45:30",1284977,1.435,61.47,23.91,0.488,21.52,109.4897,23.58,24.63,12.65,0,110.9,13.19,24.42,23.5
"2009-09-30 01:46:00",1284978,1.884,79.74,8.22,0.238,21.5,109.493,23.59,24.61,12.78,0,110.9,13.19,24.43,41.7
"2009-09-30 01:46:30",1284979,1.75,92.5,5.746,0.241,21.51,109.4908,23.59,24.6,12.94,0,110.9,13.19,24.42,54.5
"2009-09-30 01:47:00",1284980,1.635,81.7,5.108,0.188,21.52,109.4715,23.54,24.58,13,0,110.9,13.19,24.37,43.7
"2009-09-30 01:47:30",1284981,1.734,80.5,8.01,0.266,21.54,109.4596,23.51,24.55,13,0,110.9,13.19,24.34,42.5